GPS BIIF-8 (PRN 03)

Last updated on Tue Jul 01 2025 00:03:13 GMT+0000 (Coordinated Universal Time)

1 40294U 14068A 25180.92624147 -.00000086 00000+0 00000+0 0 9992 2 40294 56.7323 44.5564 0061528 67.3034 293.4036 2.00554689 78146
UTC large
Height (km)
Speed (km/s)
/
Latitude / Longitude
Inclination (degrees)
Orbital Period (minutes)
Azimuth
Elevation
Range (km)
Doppler Factor

Next 0 passes for location: London (51.5072 / 0.1276)

Sorry there are no passes over London.